Oconto, WI

8:07 AM CDT on March 26, 2017 (GMT -0500)
Oconto Municipal

Weather History for KOCQ - March, 2014

Change the Weather History Date:

Monday, March 24, 2014

  Actual Average Record
Temperature  
Mean Temperature 16 °F -  
Max Temperature 30 °F 41 °F 40 °F (2015)
Min Temperature 2 °F 20 °F 2 °F (2014)
Degree Days  
Heating Degree Days 49    
Moisture  
Dew Point 8 °F    
Average Humidity 64    
Maximum Humidity 90    
Minimum Humidity 36    
Precipitation  
Precipitation 0.00 in - - ()
Sea Level Pressure  
Sea Level Pressure 30.17 in    
Wind  
Wind Speed 6 mph (West)    
Max Wind Speed 17 mph    
Max Gust Speed 32 mph    
Visibility 10 miles    
Events      
Averages and records for this station are not official NWS values.
T = Trace of Precipitation, MM = Missing Value Source: NWS Daily Summary

Daily Weather History Graph

Daily Weather History Graph

Search for Another Location

Airport or City:

Trip Planner

Search our weather history database for the weather conditions in past years. The results will help you decide how hot, cold, wet, or windy it might be!

Date:

Astronomy

Mar. 24, 2014 Rise Set
Actual Time 6:47 AM CDT 7:09 PM CDT
Civil Twilight 6:17 AM CDT 7:38 PM CDT
Nautical Twilight 5:43 AM CDT 8:13 PM CDT
Astronomical Twilight 5:07 AM CDT 8:48 PM CDT
Moon 2:31 AM CDT (3/24) 12:20 PM CDT (3/24)
Length of Visible Light 13h 20m
Length of Day
12h 21m
Last Quarter, 43% of the Moon is Illuminated
Mar 24
Last Quarter
Mar 30
New
Apr 7
First Quarter
Apr 15
Full
Apr 22
Last Quarter

Hourly Weather History & Observations

Time (CDT) Temp. Windchill Dew Point Humidity Pressure Visibility Wind Dir Wind Speed Gust Speed Precip Events Conditions
12:15 AM 14.4 °F 6.9 °F 3.4 °F 62% 30.33 in 10.0 mi WNW 4.6 mph - N/A   Clear
12:35 AM 14.0 °F 8.2 °F 3.2 °F 62% 30.33 in 10.0 mi WNW 3.5 mph - N/A   Clear
12:55 AM 13.5 °F 5.8 °F 3.0 °F 63% 30.33 in 10.0 mi WNW 4.6 mph - N/A   Clear
1:15 AM 12.9 °F 5.2 °F 3.0 °F 65% 30.33 in 10.0 mi West 4.6 mph - N/A   Clear
1:35 AM 11.8 °F 3.9 °F 2.7 °F 67% 30.33 in 10.0 mi West 4.6 mph - N/A   Clear
1:55 AM 11.3 °F 5.1 °F 2.3 °F 67% 30.33 in 10.0 mi WNW 3.5 mph - N/A   Clear
2:15 AM 11.5 °F 3.5 °F 2.1 °F 66% 30.33 in 10.0 mi WNW 4.6 mph - N/A   Clear
2:35 AM 10.2 °F 3.8 °F 1.9 °F 69% 30.33 in 10.0 mi WNW 3.5 mph - N/A   Clear
2:50 AM 10.2 °F 2.0 °F 1.6 °F 68% 30.33 in 10.0 mi West 4.6 mph - N/A   Clear
3:15 AM 9.5 °F 3.0 °F 1.4 °F 70% 30.31 in 10.0 mi West 3.5 mph - N/A   Clear
3:35 AM 8.6 °F - 0.5 °F 70% 30.31 in 10.0 mi Calm Calm - N/A   Clear
3:55 AM 5.4 °F - -0.6 °F 76% 30.31 in 10.0 mi Calm Calm - N/A   Clear
4:15 AM 5.0 °F -4.1 °F 0.1 °F 80% 30.31 in 10.0 mi West 4.6 mph - N/A   Clear
4:35 AM 5.9 °F -1.1 °F 0.7 °F 79% 30.31 in 10.0 mi West 3.5 mph - N/A   Clear
4:55 AM 4.6 °F -2.5 °F -0.4 °F 80% 30.30 in 10.0 mi West 3.5 mph - N/A   Clear
5:15 AM 6.8 °F -3.5 °F 0.5 °F 75% 30.30 in 10.0 mi West 5.8 mph - N/A   Clear
5:35 AM 6.6 °F -2.2 °F 0.5 °F 76% 30.29 in 10.0 mi West 4.6 mph - N/A   Clear
5:55 AM 5.5 °F -1.5 °F -0.0 °F 78% 30.29 in 10.0 mi West 3.5 mph - N/A   Clear
6:15 AM 3.9 °F - -0.6 °F 82% 30.29 in 10.0 mi Calm Calm - N/A   Clear
6:35 AM 3.9 °F - -0.4 °F 82% 30.29 in 10.0 mi Calm Calm - N/A   Clear
6:55 AM 2.7 °F -4.8 °F -1.3 °F 84% 30.28 in 10.0 mi West 3.5 mph - N/A   Clear
7:15 AM 4.1 °F -3.2 °F -0.2 °F 82% 30.28 in 10.0 mi West 3.5 mph - N/A   Clear
7:30 AM 6.6 °F -0.3 °F 1.4 °F 79% 30.28 in 10.0 mi West 3.5 mph - N/A   Clear
7:55 AM 9.1 °F 0.8 °F 2.1 °F 73% 30.28 in 10.0 mi West 4.6 mph - N/A   Clear
8:15 AM 10.9 °F 1.4 °F 2.8 °F 70% 30.27 in 10.0 mi West 5.8 mph - N/A   Clear
8:35 AM 12.9 °F 3.8 °F 3.9 °F 67% 30.26 in 10.0 mi West 5.8 mph - N/A   Clear
8:55 AM 14.9 °F 5.0 °F 4.3 °F 63% 30.26 in 10.0 mi West 6.9 mph - N/A   Clear
9:15 AM 16.3 °F 4.9 °F 5.2 °F 62% 30.26 in 10.0 mi West 9.2 mph - N/A   Mostly Cloudy
9:35 AM 18.0 °F 6.9 °F 5.4 °F 58% 30.26 in 10.0 mi WSW 9.2 mph - N/A   Scattered Clouds
9:55 AM 19.6 °F 10.6 °F 6.3 °F 56% 30.25 in 10.0 mi West 6.9 mph - N/A   Clear
10:15 AM 21.2 °F 10.1 °F 7.0 °F 54% 30.24 in 10.0 mi WSW 10.4 mph - N/A   Clear
10:35 AM 21.6 °F 8.8 °F 6.8 °F 53% 30.23 in 10.0 mi West 13.8 mph 18.4 mph N/A   Clear
10:55 AM 22.3 °F 8.7 °F 6.8 °F 52% 30.22 in 10.0 mi West 16.1 mph 19.6 mph N/A   Clear
11:15 AM 22.5 °F 12.4 °F 6.6 °F 51% 30.21 in 10.0 mi West 9.2 mph 19.6 mph N/A   Clear
11:35 AM 23.4 °F 10.6 °F 6.4 °F 48% 30.20 in 10.0 mi West 15.0 mph - N/A   Clear
11:55 AM 24.6 °F 14.4 °F 7.0 °F 47% 30.19 in 10.0 mi WNW 10.4 mph 20.7 mph N/A   Clear
12:10 PM 24.8 °F 15.3 °F 5.0 °F 43% 30.19 in 10.0 mi WNW 9.2 mph 19.6 mph N/A   Clear
12:35 PM 25.7 °F 15.7 °F 5.2 °F 42% 30.17 in 10.0 mi West 10.4 mph - N/A   Clear
12:55 PM 26.6 °F 16.2 °F 4.6 °F 39% 30.17 in 10.0 mi WNW 11.5 mph 18.4 mph N/A   Clear
1:15 PM 27.1 °F 18.2 °F 5.5 °F 40% 30.15 in 10.0 mi West 9.2 mph 16.1 mph N/A   Clear
1:35 PM 28.2 °F 16.8 °F 5.4 °F 38% 30.14 in 10.0 mi West 15.0 mph 20.7 mph N/A   Clear
1:55 PM 28.4 °F 19.1 °F 4.6 °F 36% 30.12 in 10.0 mi West 10.4 mph 17.3 mph N/A   Clear
2:15 PM 28.2 °F 17.7 °F 6.3 °F 39% 30.11 in 10.0 mi WNW 12.7 mph 21.9 mph N/A   Scattered Clouds
2:35 PM 29.5 °F 19.3 °F 8.2 °F 41% 30.11 in 10.0 mi WNW 12.7 mph 18.4 mph N/A   Scattered Clouds
2:55 PM 30.0 °F 19.1 °F 7.9 °F 39% 30.10 in 10.0 mi WNW 15.0 mph 32.2 mph N/A   Mostly Cloudy
3:15 PM 30.2 °F 18.5 °F 8.6 °F 40% 30.08 in 10.0 mi WNW 17.3 mph 21.9 mph N/A   Scattered Clouds
3:35 PM 28.9 °F 18.6 °F 8.6 °F 42% 30.08 in 10.0 mi West 12.7 mph 26.5 mph N/A   Mostly Cloudy
3:55 PM 29.7 °F 20.7 °F 9.9 °F 44% 30.07 in 10.0 mi WNW 10.4 mph 23.0 mph N/A   Overcast
4:15 PM 29.3 °F 19.6 °F 9.3 °F 43% 30.06 in 10.0 mi WNW 11.5 mph 25.3 mph N/A   Mostly Cloudy
4:35 PM 29.1 °F 18.4 °F 10.8 °F 46% 30.05 in 10.0 mi WNW 13.8 mph 24.2 mph N/A   Overcast
4:55 PM 29.3 °F 19.1 °F 10.9 °F 46% 30.05 in 10.0 mi West 12.7 mph 21.9 mph N/A   Overcast
5:15 PM 29.3 °F 18.6 °F 11.3 °F 47% 30.04 in 10.0 mi West 13.8 mph - N/A   Overcast
5:35 PM 29.7 °F 20.1 °F 13.1 °F 50% 30.04 in 10.0 mi WSW 11.5 mph 21.9 mph N/A   Overcast
5:55 PM 28.9 °F 18.6 °F 12.9 °F 51% 30.03 in 10.0 mi West 12.7 mph 23.0 mph N/A   Overcast
6:15 PM 28.2 °F 17.2 °F 12.7 °F 52% 30.03 in 10.0 mi West 13.8 mph - N/A   Mostly Cloudy
6:35 PM 27.5 °F 18.6 °F 13.6 °F 56% 30.02 in 10.0 mi WSW 9.2 mph - N/A   Mostly Cloudy
6:55 PM 27.5 °F 16.8 °F 14.7 °F 59% 30.02 in 10.0 mi WSW 12.7 mph - N/A   Overcast
7:15 PM 26.8 °F 17.1 °F 16.7 °F 66% 30.01 in 10.0 mi WSW 10.4 mph - N/A   Overcast
7:35 PM 26.6 °F 19.1 °F 17.1 °F 67% 30.01 in 10.0 mi WSW 6.9 mph - N/A   Overcast
7:55 PM 25.9 °F 19.2 °F 17.6 °F 71% 30.01 in 10.0 mi WSW 5.8 mph - N/A   Overcast
8:15 PM 25.7 °F 19.0 °F 18.3 °F 74% 30.00 in 10.0 mi SW 5.8 mph - N/A   Overcast
8:35 PM 25.7 °F 20.1 °F 18.7 °F 75% 29.99 in 10.0 mi SW 4.6 mph - N/A   Overcast
8:55 PM 25.5 °F 19.9 °F 20.1 °F 80% 29.99 in 10.0 mi WSW 4.6 mph - N/A   Overcast
9:15 PM 25.3 °F 19.7 °F 20.3 °F 81% 29.99 in 10.0 mi WSW 4.6 mph - N/A   Overcast
9:35 PM 24.8 °F 20.5 °F 20.3 °F 83% 29.99 in 10.0 mi WSW 3.5 mph - N/A   Overcast
9:55 PM 24.1 °F 17.0 °F 20.1 °F 85% 29.98 in 10.0 mi West 5.8 mph - N/A   Scattered Clouds
10:15 PM 24.3 °F 15.4 °F 21.0 °F 87% 29.98 in 3.0 mi WNW 8.1 mph - N/A   Mostly Cloudy
10:35 PM 23.7 °F 17.8 °F 20.8 °F 89% 29.98 in 10.0 mi WNW 4.6 mph - N/A   Overcast
10:55 PM 22.6 °F 15.3 °F 20.1 °F 90% 29.98 in 10.0 mi West 5.8 mph - N/A   Mostly Cloudy
11:15 PM 21.7 °F 14.3 °F 19.2 °F 90% 29.98 in 10.0 mi West 5.8 mph - N/A   Scattered Clouds
11:35 PM 21.2 °F 14.9 °F 18.3 °F 89% 29.97 in 10.0 mi West 4.6 mph - N/A   Scattered Clouds
11:55 PM 20.3 °F 11.5 °F 17.6 °F 89% 29.97 in 10.0 mi West 6.9 mph - N/A   Scattered Clouds